Overview Statistics Trail Chart Weather Telemetry Raw packets
 

This is the latest recevied weather packets stored in our database for station/object W5ALL-WX. If no packets are shown the sender has not sent any weather packets the latest 10 day(s).

<< 83 84 85 86 87 88 89 >>
Time Temp. Humidity Pressure Rain* Wind** Luminosity Snow
1777379826 12.22° C 23% 1015.9 hPa 0 mm - - -
1777379526 12.22° C 22% 1015.7 hPa 0 mm - - -
1777379226 12.22° C 22% 1015.6 hPa 0 mm - - -
1777378926 12.22° C 22% 1015.7 hPa 0 mm - - -
1777378626 12.22° C 22% 1015.6 hPa 0 mm - - -
1777378326 11.67° C 22% 1015.5 hPa 0 mm - - -
1777378026 11.67° C 23% 1015.5 hPa 0 mm - - -
1777377726 11.67° C 23% 1015.3 hPa 0 mm - - -
1777377426 11.11° C 23% 1015.2 hPa 0 mm - - -
1777377126 10.56° C 24% 1015 hPa 0 mm - - -
1777376826 10.56° C 25% 1015 hPa 0 mm - - -
1777376526 10° C 26% 1014.9 hPa 0 mm - - -
1777376226 10° C 26% 1014.8 hPa 0 mm - - -
1777375926 10.56° C 25% 1014.8 hPa 0 mm - - -
1777375626 10.56° C 24% 1014.8 hPa 0 mm - - -
1777375326 10.56° C 25% 1014.7 hPa 0 mm - - -
1777375026 10.56° C 25% 1014.7 hPa 0 mm - - -
1777374726 11.11° C 23% 1014.6 hPa 0 mm - - -
1777374426 11.67° C 22% 1014.6 hPa 0 mm - - -
1777374126 11.67° C 22% 1014.6 hPa 0 mm - - -
1777373826 11.67° C 23% 1014.5 hPa 0 mm - - -
1777373526 12.22° C 21% 1014.6 hPa 0 mm - - -
1777373226 11.67° C 22% 1014.5 hPa 0 mm - - -
1777372926 11.11° C 23% 1014.5 hPa 0 mm - - -
1777372626 12.22° C 22% 1014.5 hPa 0 mm - - -

* Rain latest hour (hover to see other rain measurements)
** Current wind speed in m/s (hover to see current wind gust speed)